Year,Month,Day,Hour,Minute,Value (Times are PST for temperature in C)
2009,06,05,00,00,18.20
2009,06,05,00,01,18.20
2009,06,05,00,02,18.10
2009,06,05,00,03,18.00
2009,06,05,00,04,17.90
2009,06,05,00,05,17.80
2009,06,05,00,06,17.70
2009,06,05,00,07,17.70
2009,06,05,00,08,17.60
2009,06,05,00,09,17.60
2009,06,05,00,10,17.50
2009,06,05,00,11,17.50
2009,06,05,00,12,17.40
2009,06,05,00,13,17.50
2009,06,05,00,14,17.50
2009,06,05,00,15,17.50
2009,06,05,00,16,17.50
2009,06,05,00,17,17.50
2009,06,05,00,18,17.50
2009,06,05,00,19,17.50
2009,06,05,00,20,17.50
2009,06,05,00,21,17.50
2009,06,05,00,22,17.50
2009,06,05,00,23,17.60
2009,06,05,00,24,17.70
2009,06,05,00,25,17.80
2009,06,05,00,26,17.80
2009,06,05,00,27,17.90
2009,06,05,00,28,17.90
2009,06,05,00,29,17.90
2009,06,05,00,30,17.90
2009,06,05,00,31,17.90
2009,06,05,00,32,17.90
2009,06,05,00,33,17.90
2009,06,05,00,34,17.90
2009,06,05,00,35,17.90
2009,06,05,00,36,17.90
2009,06,05,00,37,17.80
2009,06,05,00,38,17.70
2009,06,05,00,39,17.70
2009,06,05,00,40,17.60
2009,06,05,00,41,17.60
2009,06,05,00,42,17.50
2009,06,05,00,43,17.50
2009,06,05,00,44,17.50
2009,06,05,00,45,17.50
2009,06,05,00,46,17.50
2009,06,05,00,47,17.40
2009,06,05,00,48,17.40
2009,06,05,00,49,17.40
2009,06,05,00,50,17.40
2009,06,05,00,51,17.40
2009,06,05,00,52,17.40
2009,06,05,00,53,17.50
2009,06,05,00,54,17.50
2009,06,05,00,55,17.50
2009,06,05,00,56,17.50
2009,06,05,00,57,17.50
2009,06,05,00,58,17.40
2009,06,05,00,59,17.50
2009,06,05,01,00,17.50
2009,06,05,01,01,17.50
2009,06,05,01,02,17.40
2009,06,05,01,03,17.40
2009,06,05,01,04,17.40
2009,06,05,01,05,17.40
2009,06,05,01,06,17.40
2009,06,05,01,07,17.30
2009,06,05,01,08,17.30
2009,06,05,01,09,17.30
2009,06,05,01,10,17.30
2009,06,05,01,11,17.30
2009,06,05,01,12,17.30
2009,06,05,01,13,17.30
2009,06,05,01,14,17.30
2009,06,05,01,15,17.30
2009,06,05,01,16,17.30
2009,06,05,01,17,17.30
2009,06,05,01,18,17.30
2009,06,05,01,19,17.40
2009,06,05,01,20,17.40
2009,06,05,01,21,17.50
2009,06,05,01,22,17.50
2009,06,05,01,23,17.50
2009,06,05,01,24,17.40
2009,06,05,01,25,17.40
2009,06,05,01,26,17.40
2009,06,05,01,27,17.40
2009,06,05,01,28,17.40
2009,06,05,01,29,17.40
2009,06,05,01,30,17.30
2009,06,05,01,31,17.30
2009,06,05,01,32,17.30
2009,06,05,01,33,17.30
2009,06,05,01,34,17.30
2009,06,05,01,35,17.30
2009,06,05,01,36,17.20
2009,06,05,01,37,17.20
2009,06,05,01,38,17.20
2009,06,05,01,39,17.10
2009,06,05,01,40,17.10
2009,06,05,01,41,17.10
2009,06,05,01,42,17.00
2009,06,05,01,43,17.00
2009,06,05,01,44,17.00
2009,06,05,01,45,16.90
2009,06,05,01,46,16.90
2009,06,05,01,47,16.90
2009,06,05,01,48,16.80
2009,06,05,01,49,16.80
2009,06,05,01,50,16.80
2009,06,05,01,51,16.70
2009,06,05,01,52,16.70
2009,06,05,01,53,16.70
2009,06,05,01,54,16.70
2009,06,05,01,55,16.70
2009,06,05,01,56,16.60
2009,06,05,01,57,16.50
2009,06,05,01,58,16.40
2009,06,05,01,59,16.40
2009,06,05,02,00,16.30
2009,06,05,02,01,16.20
2009,06,05,02,02,16.10
2009,06,05,02,03,16.10
2009,06,05,02,04,15.90
2009,06,05,02,05,15.90
2009,06,05,02,06,15.80
2009,06,05,02,07,15.80
2009,06,05,02,08,15.80
2009,06,05,02,09,15.70
2009,06,05,02,10,15.60
2009,06,05,02,11,15.60
2009,06,05,02,12,15.60
2009,06,05,02,13,15.50
2009,06,05,02,14,15.50
2009,06,05,02,15,15.40
2009,06,05,02,16,15.40
2009,06,05,02,17,15.40
2009,06,05,02,18,15.40
2009,06,05,02,19,15.30
2009,06,05,02,20,15.30
2009,06,05,02,21,15.30
2009,06,05,02,22,15.30
2009,06,05,02,23,15.20
2009,06,05,02,24,15.20
2009,06,05,02,25,15.10
2009,06,05,02,26,15.10
2009,06,05,02,27,15.00
2009,06,05,02,28,14.90
2009,06,05,02,29,14.80
2009,06,05,02,30,14.70
2009,06,05,02,31,14.60
2009,06,05,02,32,14.60
2009,06,05,02,33,14.60
2009,06,05,02,34,14.50
2009,06,05,02,35,14.50
2009,06,05,02,36,14.50
2009,06,05,02,37,14.50
2009,06,05,02,38,14.40
2009,06,05,02,39,14.40
2009,06,05,02,40,14.40
2009,06,05,02,41,14.40
2009,06,05,02,42,14.40
2009,06,05,02,43,14.40
2009,06,05,02,44,14.40
2009,06,05,02,45,14.40
2009,06,05,02,46,14.40
2009,06,05,02,47,14.40
2009,06,05,02,48,14.30
2009,06,05,02,49,14.30
2009,06,05,02,50,14.20
2009,06,05,02,51,14.20
2009,06,05,02,52,14.20
2009,06,05,02,53,14.10
2009,06,05,02,54,14.10
2009,06,05,02,55,14.10
2009,06,05,02,56,14.00
2009,06,05,02,57,14.00
2009,06,05,02,58,14.00
2009,06,05,02,59,14.00
2009,06,05,03,00,14.00
2009,06,05,03,01,13.90
2009,06,05,03,02,13.90
2009,06,05,03,03,13.80
2009,06,05,03,04,13.70
2009,06,05,03,05,13.70
2009,06,05,03,06,13.60
2009,06,05,03,07,13.50
2009,06,05,03,08,13.40
2009,06,05,03,09,13.30
2009,06,05,03,10,13.30
2009,06,05,03,11,13.20
2009,06,05,03,12,13.10
2009,06,05,03,13,13.00
2009,06,05,03,14,13.00
2009,06,05,03,15,12.90
2009,06,05,03,16,12.90
2009,06,05,03,17,12.90
2009,06,05,03,18,12.90
2009,06,05,03,19,12.90
2009,06,05,03,20,12.90
2009,06,05,03,21,12.90
2009,06,05,03,22,12.80
2009,06,05,03,23,12.80
2009,06,05,03,24,12.80
2009,06,05,03,25,12.80
2009,06,05,03,26,12.80
2009,06,05,03,27,12.90
2009,06,05,03,28,12.90
2009,06,05,03,29,12.90
2009,06,05,03,30,12.90
2009,06,05,03,31,12.90
2009,06,05,03,32,12.90
2009,06,05,03,33,12.80
2009,06,05,03,34,12.90
2009,06,05,03,35,12.90
2009,06,05,03,36,12.90
2009,06,05,03,37,13.00
2009,06,05,03,38,13.00
2009,06,05,03,39,13.00
2009,06,05,03,40,13.00
2009,06,05,03,41,13.10
2009,06,05,03,42,13.20
2009,06,05,03,43,13.30
2009,06,05,03,44,13.40
2009,06,05,03,45,13.50
2009,06,05,03,46,13.60
2009,06,05,03,47,13.60
2009,06,05,03,48,13.70
2009,06,05,03,49,13.80
2009,06,05,03,50,13.80
2009,06,05,03,51,13.90
2009,06,05,03,52,13.90
2009,06,05,03,53,13.90
2009,06,05,03,54,14.00
2009,06,05,03,55,14.00
2009,06,05,03,56,14.00
2009,06,05,03,57,14.00
2009,06,05,03,58,14.00
2009,06,05,03,59,14.00
2009,06,05,04,00,14.00
2009,06,05,04,01,14.00
2009,06,05,04,02,14.10
2009,06,05,04,03,14.10
2009,06,05,04,04,14.10
2009,06,05,04,05,14.10
2009,06,05,04,06,14.10
2009,06,05,04,07,14.10
2009,06,05,04,08,14.10
2009,06,05,04,09,14.10
2009,06,05,04,10,14.00
2009,06,05,04,11,14.00
2009,06,05,04,12,14.00
2009,06,05,04,13,14.00
2009,06,05,04,14,13.90
2009,06,05,04,15,13.90
2009,06,05,04,16,13.90
2009,06,05,04,17,13.80
2009,06,05,04,18,13.80
2009,06,05,04,19,13.70
2009,06,05,04,20,13.70
2009,06,05,04,21,13.70
2009,06,05,04,22,13.70
2009,06,05,04,23,13.70
2009,06,05,04,24,13.70
2009,06,05,04,25,13.70
2009,06,05,04,26,13.60
2009,06,05,04,27,13.60
2009,06,05,04,28,13.50
2009,06,05,04,29,13.50
2009,06,05,04,30,13.50
2009,06,05,04,31,13.40
2009,06,05,04,32,13.30
2009,06,05,04,33,13.30
2009,06,05,04,34,13.30
2009,06,05,04,35,13.30
2009,06,05,04,36,13.20
2009,06,05,04,37,13.20
2009,06,05,04,38,13.20
2009,06,05,04,39,13.10
2009,06,05,04,40,13.10
2009,06,05,04,41,13.10
2009,06,05,04,42,13.00
2009,06,05,04,43,13.00
2009,06,05,04,44,13.00
2009,06,05,04,45,12.90
2009,06,05,04,46,12.90
2009,06,05,04,47,12.90
2009,06,05,04,48,12.80
2009,06,05,04,49,12.80
2009,06,05,04,50,12.80
2009,06,05,04,51,12.80
2009,06,05,04,52,12.80
2009,06,05,04,53,12.70
2009,06,05,04,54,12.70
2009,06,05,04,55,12.70
2009,06,05,04,56,12.60
2009,06,05,04,57,12.60
2009,06,05,04,58,12.60
2009,06,05,04,59,12.50
2009,06,05,05,00,12.50
2009,06,05,05,01,12.50
2009,06,05,05,02,12.50
2009,06,05,05,03,12.40
2009,06,05,05,04,12.40
2009,06,05,05,05,12.40
2009,06,05,05,06,12.40
2009,06,05,05,07,12.40
2009,06,05,05,08,12.30
2009,06,05,05,09,12.30
2009,06,05,05,10,12.30
2009,06,05,05,11,12.30
2009,06,05,05,12,12.30
2009,06,05,05,13,12.30
2009,06,05,05,14,12.30
2009,06,05,05,15,12.30
2009,06,05,05,16,12.30
2009,06,05,05,17,12.30
2009,06,05,05,18,12.30
2009,06,05,05,19,12.20
2009,06,05,05,20,12.20
2009,06,05,05,21,12.20
2009,06,05,05,22,12.20
2009,06,05,05,23,12.20
2009,06,05,05,24,12.20
2009,06,05,05,25,12.20
2009,06,05,05,26,12.10
2009,06,05,05,27,12.10
2009,06,05,05,28,12.10
2009,06,05,05,29,12.10
2009,06,05,05,30,12.10
2009,06,05,05,31,12.10
2009,06,05,05,32,12.10
2009,06,05,05,33,12.10
2009,06,05,05,34,12.10
2009,06,05,05,35,12.20
2009,06,05,05,36,12.20
2009,06,05,05,37,12.20
2009,06,05,05,38,12.20
2009,06,05,05,39,12.20
2009,06,05,05,40,12.20
2009,06,05,05,41,12.20
2009,06,05,05,42,12.20
2009,06,05,05,43,12.20
2009,06,05,05,44,12.20
2009,06,05,05,45,12.20
2009,06,05,05,46,12.20
2009,06,05,05,47,12.20
2009,06,05,05,48,12.20
2009,06,05,05,49,12.20
2009,06,05,05,50,12.20
2009,06,05,05,51,12.20
2009,06,05,05,52,12.20
2009,06,05,05,53,12.30
2009,06,05,05,54,12.30
2009,06,05,05,55,12.30
2009,06,05,05,56,12.30
2009,06,05,05,57,12.30
2009,06,05,05,58,12.30
2009,06,05,05,59,12.30
2009,06,05,06,00,12.30
2009,06,05,06,01,12.30
2009,06,05,06,02,12.30
2009,06,05,06,03,12.30
2009,06,05,06,04,12.30
2009,06,05,06,05,12.30
2009,06,05,06,06,12.30
2009,06,05,06,07,12.30
2009,06,05,06,08,12.30
2009,06,05,06,09,12.30
2009,06,05,06,10,12.30
2009,06,05,06,11,12.40
2009,06,05,06,12,12.40
2009,06,05,06,13,12.40
2009,06,05,06,14,12.40
2009,06,05,06,15,12.50
2009,06,05,06,16,12.50
2009,06,05,06,17,12.50
2009,06,05,06,18,12.60
2009,06,05,06,19,12.60
2009,06,05,06,20,12.60
2009,06,05,06,21,12.70
2009,06,05,06,22,12.70
2009,06,05,06,23,12.70
2009,06,05,06,24,12.80
2009,06,05,06,25,12.80
2009,06,05,06,26,12.80
2009,06,05,06,27,12.80
2009,06,05,06,28,12.80
2009,06,05,06,29,12.80
2009,06,05,06,30,12.90
2009,06,05,06,31,12.90
2009,06,05,06,32,13.00
2009,06,05,06,33,13.00
2009,06,05,06,34,13.10
2009,06,05,06,35,13.10
2009,06,05,06,36,13.10
2009,06,05,06,37,13.10
2009,06,05,06,38,13.20
2009,06,05,06,39,13.20
2009,06,05,06,40,13.20
2009,06,05,06,41,13.20
2009,06,05,06,42,13.30
2009,06,05,06,43,13.30
2009,06,05,06,44,13.30
2009,06,05,06,45,13.30
2009,06,05,06,46,13.40
2009,06,05,06,47,13.50
2009,06,05,06,48,13.50
2009,06,05,06,49,13.60
2009,06,05,06,50,13.70
2009,06,05,06,51,13.70
2009,06,05,06,52,13.70
2009,06,05,06,53,13.80
2009,06,05,06,54,13.90
2009,06,05,06,55,14.00
2009,06,05,06,56,14.00
2009,06,05,06,57,14.10
2009,06,05,06,58,14.20
2009,06,05,06,59,14.30
2009,06,05,07,00,14.40
2009,06,05,07,01,14.50
2009,06,05,07,02,14.60
2009,06,05,07,03,14.60
2009,06,05,07,04,14.80
2009,06,05,07,05,14.80
2009,06,05,07,06,14.90
2009,06,05,07,07,15.00
2009,06,05,07,08,15.10
2009,06,05,07,09,15.20
2009,06,05,07,10,15.30
2009,06,05,07,11,15.30
2009,06,05,07,12,15.40
2009,06,05,07,13,15.50
2009,06,05,07,14,15.60
2009,06,05,07,15,15.60
2009,06,05,07,16,15.80
2009,06,05,07,17,15.80
2009,06,05,07,18,15.80
2009,06,05,07,19,15.90
2009,06,05,07,20,15.90
2009,06,05,07,21,16.10
2009,06,05,07,22,16.10
2009,06,05,07,23,16.10
2009,06,05,07,24,16.20
2009,06,05,07,25,16.20
2009,06,05,07,26,16.20
2009,06,05,07,27,16.10
2009,06,05,07,28,16.10
2009,06,05,07,29,16.10
2009,06,05,07,30,16.10
2009,06,05,07,31,16.00
2009,06,05,07,32,15.90
2009,06,05,07,33,15.90
2009,06,05,07,34,15.90
2009,06,05,07,35,15.90
2009,06,05,07,36,15.90
2009,06,05,07,37,15.90
2009,06,05,07,38,15.90
2009,06,05,07,39,15.90
2009,06,05,07,40,16.00
2009,06,05,07,41,16.10
2009,06,05,07,42,16.10
2009,06,05,07,43,16.10
2009,06,05,07,44,16.10
2009,06,05,07,45,16.10
2009,06,05,07,46,16.10
2009,06,05,07,47,16.20
2009,06,05,07,48,16.20
2009,06,05,07,49,16.30
2009,06,05,07,50,16.30
2009,06,05,07,51,16.30
2009,06,05,07,52,16.40
2009,06,05,07,53,16.40
2009,06,05,07,54,16.50
2009,06,05,07,55,16.60
2009,06,05,07,56,16.70
2009,06,05,07,57,16.80
2009,06,05,07,58,16.90
2009,06,05,07,59,17.00
2009,06,05,08,00,17.10
2009,06,05,08,01,17.20
2009,06,05,08,02,17.30
2009,06,05,08,03,17.40
2009,06,05,08,04,17.50
2009,06,05,08,05,17.50
2009,06,05,08,06,17.60
2009,06,05,08,07,17.60
2009,06,05,08,08,17.60
2009,06,05,08,09,17.60
2009,06,05,08,10,17.60
2009,06,05,08,11,17.60
2009,06,05,08,12,17.70
2009,06,05,08,13,17.70
2009,06,05,08,14,17.70
2009,06,05,08,15,17.70
2009,06,05,08,16,17.70
2009,06,05,08,17,17.80
2009,06,05,08,18,17.80
2009,06,05,08,19,17.80
2009,06,05,08,20,17.80
2009,06,05,08,21,17.80
2009,06,05,08,22,17.80
2009,06,05,08,23,17.90
2009,06,05,08,24,17.90
2009,06,05,08,25,17.90
2009,06,05,08,26,17.90
2009,06,05,08,27,17.90
2009,06,05,08,28,17.90
2009,06,05,08,29,17.80
2009,06,05,08,30,17.70
2009,06,05,08,31,17.60
2009,06,05,08,32,17.50
2009,06,05,08,33,17.50
2009,06,05,08,34,17.40
2009,06,05,08,35,17.40
2009,06,05,08,36,17.30
2009,06,05,08,37,17.30
2009,06,05,08,38,17.30
2009,06,05,08,39,17.30
2009,06,05,08,40,17.30
2009,06,05,08,41,17.30
2009,06,05,08,42,17.20
2009,06,05,08,43,17.20
2009,06,05,08,44,17.20
2009,06,05,08,45,17.20
2009,06,05,08,46,17.20
2009,06,05,08,47,17.10
2009,06,05,08,48,17.10
2009,06,05,08,49,17.00
2009,06,05,08,50,17.10
2009,06,05,08,51,17.10
2009,06,05,08,52,17.20
2009,06,05,08,53,17.20
2009,06,05,08,54,17.20
2009,06,05,08,55,17.20
2009,06,05,08,56,17.20
2009,06,05,08,57,17.20
2009,06,05,08,58,17.20
2009,06,05,08,59,17.20
2009,06,05,09,00,17.20
2009,06,05,09,01,17.10
2009,06,05,09,02,17.00
2009,06,05,09,03,16.90
2009,06,05,09,04,16.80
2009,06,05,09,05,16.70
2009,06,05,09,06,16.70
2009,06,05,09,07,16.70
2009,06,05,09,08,16.80
2009,06,05,09,09,16.80
2009,06,05,09,10,16.90
2009,06,05,09,11,17.00
2009,06,05,09,12,17.00
2009,06,05,09,13,17.10
2009,06,05,09,14,17.10
2009,06,05,09,15,17.10
2009,06,05,09,16,17.10
2009,06,05,09,17,17.20
2009,06,05,09,18,17.10
2009,06,05,09,19,17.00
2009,06,05,09,20,17.00
2009,06,05,09,21,17.10
2009,06,05,09,22,17.10
2009,06,05,09,23,17.10
2009,06,05,09,24,17.10
2009,06,05,09,25,17.10
2009,06,05,09,26,17.10
2009,06,05,09,27,17.10
2009,06,05,09,28,17.20
2009,06,05,09,29,17.20
2009,06,05,09,30,17.30
2009,06,05,09,31,17.30
2009,06,05,09,32,17.30
2009,06,05,09,33,17.30
2009,06,05,09,34,17.30
2009,06,05,09,35,17.30
2009,06,05,09,36,17.30
2009,06,05,09,37,17.40
2009,06,05,09,38,17.50
2009,06,05,09,39,17.50
2009,06,05,09,40,17.70
2009,06,05,09,41,17.80
2009,06,05,09,42,17.90
2009,06,05,09,43,17.90
2009,06,05,09,44,17.90
2009,06,05,09,45,17.90
2009,06,05,09,46,17.90
2009,06,05,09,47,18.10
2009,06,05,09,48,18.10
2009,06,05,09,49,18.10
2009,06,05,09,50,17.90
2009,06,05,09,51,17.90
2009,06,05,09,52,17.90
2009,06,05,09,53,18.00
2009,06,05,09,54,18.10
2009,06,05,09,55,18.10
2009,06,05,09,56,18.20
2009,06,05,09,57,18.20
2009,06,05,09,58,18.20
2009,06,05,09,59,18.20
2009,06,05,10,00,18.20
2009,06,05,10,01,18.20
2009,06,05,10,02,18.30
2009,06,05,10,03,18.40
2009,06,05,10,04,18.40
2009,06,05,10,05,18.50
2009,06,05,10,06,18.40
2009,06,05,10,07,18.40
2009,06,05,10,08,18.40
2009,06,05,10,09,18.40
2009,06,05,10,10,18.30
2009,06,05,10,11,18.30
2009,06,05,10,12,18.30
2009,06,05,10,13,18.30
2009,06,05,10,14,18.30
2009,06,05,10,15,18.30
2009,06,05,10,16,18.30
2009,06,05,10,17,18.30
2009,06,05,10,18,18.30
2009,06,05,10,19,18.40
2009,06,05,10,20,18.50
2009,06,05,10,21,18.70
2009,06,05,10,22,18.90
2009,06,05,10,23,19.00
2009,06,05,10,24,19.10
2009,06,05,10,25,19.20
2009,06,05,10,26,19.30
2009,06,05,10,27,19.40
2009,06,05,10,28,19.50
2009,06,05,10,29,19.60
2009,06,05,10,30,19.60
2009,06,05,10,31,19.60
2009,06,05,10,32,19.60
2009,06,05,10,33,19.50
2009,06,05,10,34,19.40
2009,06,05,10,35,19.40
2009,06,05,10,36,19.30
2009,06,05,10,37,19.20
2009,06,05,10,38,19.10
2009,06,05,10,39,19.10
2009,06,05,10,40,19.10
2009,06,05,10,41,19.10
2009,06,05,10,42,19.10
2009,06,05,10,43,19.20
2009,06,05,10,44,19.40
2009,06,05,10,45,19.60
2009,06,05,10,46,19.60
2009,06,05,10,47,19.70
2009,06,05,10,48,19.80
2009,06,05,10,49,19.90
2009,06,05,10,50,19.90
2009,06,05,10,51,20.10
2009,06,05,10,52,20.00
2009,06,05,10,53,19.90
2009,06,05,10,54,19.90
2009,06,05,10,55,19.80
2009,06,05,10,56,19.70
2009,06,05,10,57,19.60
2009,06,05,10,58,19.40
2009,06,05,10,59,19.40
2009,06,05,11,00,19.30
2009,06,05,11,01,19.20
2009,06,05,11,02,19.20
2009,06,05,11,03,19.10
2009,06,05,11,04,19.10
2009,06,05,11,05,19.10
2009,06,05,11,06,19.20
2009,06,05,11,07,19.30
2009,06,05,11,08,19.40
2009,06,05,11,09,19.50
2009,06,05,11,10,19.60
2009,06,05,11,11,19.70
2009,06,05,11,12,19.80
2009,06,05,11,13,19.90
2009,06,05,11,14,19.90
2009,06,05,11,15,19.90
2009,06,05,11,16,20.00
2009,06,05,11,17,19.90
2009,06,05,11,18,20.10
2009,06,05,11,19,20.00
2009,06,05,11,20,19.90
2009,06,05,11,21,19.90
2009,06,05,11,22,19.80
2009,06,05,11,23,19.80
2009,06,05,11,24,19.70
2009,06,05,11,25,19.70
2009,06,05,11,26,19.70
2009,06,05,11,27,19.80
2009,06,05,11,28,19.70
2009,06,05,11,29,19.60
2009,06,05,11,30,19.60
2009,06,05,11,31,19.60
2009,06,05,11,32,19.50
2009,06,05,11,33,19.50
2009,06,05,11,34,19.50
2009,06,05,11,35,19.50
2009,06,05,11,36,19.60
2009,06,05,11,37,19.60
2009,06,05,11,38,19.70
2009,06,05,11,39,19.70
2009,06,05,11,40,19.70
2009,06,05,11,41,19.70
2009,06,05,11,42,19.90
2009,06,05,11,43,20.00
2009,06,05,11,44,20.10
2009,06,05,11,45,20.20
2009,06,05,11,46,20.30
2009,06,05,11,47,20.50
2009,06,05,11,48,20.50
2009,06,05,11,49,20.60
2009,06,05,11,50,20.60
2009,06,05,11,51,20.70
2009,06,05,11,52,20.70
2009,06,05,11,53,20.80
2009,06,05,11,54,20.80
2009,06,05,11,55,20.70
2009,06,05,11,56,20.60
2009,06,05,11,57,20.50
2009,06,05,11,58,20.50
2009,06,05,11,59,20.50
2009,06,05,12,00,20.50
2009,06,05,12,01,20.50
2009,06,05,12,02,20.60
2009,06,05,12,03,20.60
2009,06,05,12,04,20.50
2009,06,05,12,05,20.60
2009,06,05,12,06,20.60
2009,06,05,12,07,20.70
2009,06,05,12,08,20.70
2009,06,05,12,09,20.80
2009,06,05,12,10,20.80
2009,06,05,12,11,20.90
2009,06,05,12,12,20.80
2009,06,05,12,13,20.70
2009,06,05,12,14,20.60
2009,06,05,12,15,20.60
2009,06,05,12,16,20.60
2009,06,05,12,17,20.70
2009,06,05,12,18,20.80
2009,06,05,12,19,21.00
2009,06,05,12,20,21.20
2009,06,05,12,21,21.30
2009,06,05,12,22,21.40
2009,06,05,12,23,21.50
2009,06,05,12,24,21.60
2009,06,05,12,25,21.60
2009,06,05,12,26,21.70
2009,06,05,12,27,21.70
2009,06,05,12,28,21.70
2009,06,05,12,29,21.60
2009,06,05,12,30,21.40
2009,06,05,12,31,21.30
2009,06,05,12,32,21.30
2009,06,05,12,33,21.30
2009,06,05,12,34,21.20
2009,06,05,12,35,21.10
2009,06,05,12,36,21.10
2009,06,05,12,37,21.20
2009,06,05,12,38,21.30
2009,06,05,12,39,21.60
2009,06,05,12,40,21.90
2009,06,05,12,41,22.20
2009,06,05,12,42,22.40
2009,06,05,12,43,22.40
2009,06,05,12,44,22.50
2009,06,05,12,45,22.60
2009,06,05,12,46,22.70
2009,06,05,12,47,22.90
2009,06,05,12,48,22.90
2009,06,05,12,49,22.90
2009,06,05,12,50,22.90
2009,06,05,12,51,22.90
2009,06,05,12,52,22.90
2009,06,05,12,53,22.90
2009,06,05,12,54,22.90
2009,06,05,12,55,22.90
2009,06,05,12,56,22.90
2009,06,05,12,57,22.90
2009,06,05,12,58,22.90
2009,06,05,12,59,22.90
2009,06,05,13,00,22.90
2009,06,05,13,01,22.90
2009,06,05,13,02,22.90
2009,06,05,13,03,22.90
2009,06,05,13,04,22.60
2009,06,05,13,05,22.40
2009,06,05,13,06,22.30
2009,06,05,13,07,22.30
2009,06,05,13,08,22.30
2009,06,05,13,09,22.30
2009,06,05,13,10,22.30
2009,06,05,13,11,22.20
2009,06,05,13,12,22.20
2009,06,05,13,13,22.10
2009,06,05,13,14,22.10
2009,06,05,13,15,22.10
2009,06,05,13,16,22.00
2009,06,05,13,17,22.00
2009,06,05,13,18,22.00
2009,06,05,13,19,22.10
2009,06,05,13,20,22.20
2009,06,05,13,21,22.20
2009,06,05,13,22,22.30
2009,06,05,13,23,22.30
2009,06,05,13,24,22.40
2009,06,05,13,25,22.40
2009,06,05,13,26,22.50
2009,06,05,13,27,22.50
2009,06,05,13,28,22.50
2009,06,05,13,29,22.40
2009,06,05,13,30,22.30
2009,06,05,13,31,22.30
2009,06,05,13,32,22.40
2009,06,05,13,33,22.40
2009,06,05,13,34,22.30
2009,06,05,13,35,22.30
2009,06,05,13,36,22.40
2009,06,05,13,37,22.40
2009,06,05,13,38,22.30
2009,06,05,13,39,22.30
2009,06,05,13,40,22.30
2009,06,05,13,41,22.30
2009,06,05,13,42,22.30
2009,06,05,13,43,22.30
2009,06,05,13,44,22.30
2009,06,05,13,45,22.30
2009,06,05,13,46,22.30
2009,06,05,13,47,22.40
2009,06,05,13,48,22.40
2009,06,05,13,49,22.40
2009,06,05,13,50,22.40
2009,06,05,13,51,22.40
2009,06,05,13,52,22.30
2009,06,05,13,53,22.30
2009,06,05,13,54,22.30
2009,06,05,13,55,22.30
2009,06,05,13,56,22.20
2009,06,05,13,57,22.10
2009,06,05,13,58,22.00
2009,06,05,13,59,21.90
2009,06,05,14,00,21.80
2009,06,05,14,01,21.70
2009,06,05,14,02,21.60
2009,06,05,14,03,21.60
2009,06,05,14,04,21.60
2009,06,05,14,05,21.60
2009,06,05,14,06,21.60
2009,06,05,14,07,21.60
2009,06,05,14,08,21.60
2009,06,05,14,09,21.60
2009,06,05,14,10,21.60
2009,06,05,14,11,21.60
2009,06,05,14,12,21.70
2009,06,05,14,13,21.70
2009,06,05,14,14,21.80
2009,06,05,14,15,21.90
2009,06,05,14,16,22.00
2009,06,05,14,17,22.00
2009,06,05,14,18,22.00
2009,06,05,14,19,22.10
2009,06,05,14,20,22.10
2009,06,05,14,21,22.10
2009,06,05,14,22,22.10
2009,06,05,14,23,22.00
2009,06,05,14,24,22.00
2009,06,05,14,25,21.90
2009,06,05,14,26,21.90
2009,06,05,14,27,21.90
2009,06,05,14,28,21.90
2009,06,05,14,29,21.90
2009,06,05,14,30,21.90
2009,06,05,14,31,21.90
2009,06,05,14,32,22.00
2009,06,05,14,33,22.10
2009,06,05,14,34,22.20
2009,06,05,14,35,22.20
2009,06,05,14,36,22.20
2009,06,05,14,37,22.10
2009,06,05,14,38,22.00
2009,06,05,14,39,22.10
2009,06,05,14,40,22.10
2009,06,05,14,41,22.10
2009,06,05,14,42,22.10
2009,06,05,14,43,22.20
2009,06,05,14,44,22.20
2009,06,05,14,45,22.30
2009,06,05,14,46,22.40
2009,06,05,14,47,22.50
2009,06,05,14,48,22.40
2009,06,05,14,49,22.40
2009,06,05,14,50,22.40
2009,06,05,14,51,22.40
2009,06,05,14,52,22.50
2009,06,05,14,53,22.50
2009,06,05,14,54,22.50
2009,06,05,14,55,22.60
2009,06,05,14,56,22.60
2009,06,05,14,57,22.70
2009,06,05,14,58,22.70
2009,06,05,14,59,22.70
2009,06,05,15,00,22.70
2009,06,05,15,01,22.60
2009,06,05,15,02,22.60
2009,06,05,15,03,22.50
2009,06,05,15,04,22.50
2009,06,05,15,05,22.60
2009,06,05,15,06,22.60
2009,06,05,15,07,22.60
2009,06,05,15,08,22.60
2009,06,05,15,09,22.60
2009,06,05,15,10,22.70
2009,06,05,15,11,22.70
2009,06,05,15,12,22.70
2009,06,05,15,13,22.80
2009,06,05,15,14,22.80
2009,06,05,15,15,22.80
2009,06,05,15,16,22.70
2009,06,05,15,17,22.70
2009,06,05,15,18,22.70
2009,06,05,15,19,22.70
2009,06,05,15,20,22.70
2009,06,05,15,21,22.70
2009,06,05,15,22,22.70
2009,06,05,15,23,22.60
2009,06,05,15,24,22.60
2009,06,05,15,25,22.60
2009,06,05,15,26,22.70
2009,06,05,15,27,22.70
2009,06,05,15,28,22.60
2009,06,05,15,29,22.60
2009,06,05,15,30,22.50
2009,06,05,15,31,22.50
2009,06,05,15,32,22.60
2009,06,05,15,33,22.70
2009,06,05,15,34,22.80
2009,06,05,15,35,22.90
2009,06,05,15,36,22.90
2009,06,05,15,37,22.90
2009,06,05,15,38,22.90
2009,06,05,15,39,22.90
2009,06,05,15,40,22.90
2009,06,05,15,41,22.80
2009,06,05,15,42,22.80
2009,06,05,15,43,22.80
2009,06,05,15,44,22.70
2009,06,05,15,45,22.70
2009,06,05,15,46,22.70
2009,06,05,15,47,22.70
2009,06,05,15,48,22.70
2009,06,05,15,49,22.70
2009,06,05,15,50,22.60
2009,06,05,15,51,22.60
2009,06,05,15,52,22.70
2009,06,05,15,53,22.80
2009,06,05,15,54,22.70
2009,06,05,15,55,22.70
2009,06,05,15,56,22.80
2009,06,05,15,57,22.70
2009,06,05,15,58,22.70
2009,06,05,15,59,22.80
2009,06,05,16,00,22.90
2009,06,05,16,01,22.90
2009,06,05,16,02,22.90
2009,06,05,16,03,22.90
2009,06,05,16,04,22.90
2009,06,05,16,05,23.10
2009,06,05,16,06,23.20
2009,06,05,16,07,23.20
2009,06,05,16,08,23.30
2009,06,05,16,09,23.30
2009,06,05,16,10,23.20
2009,06,05,16,11,23.20
2009,06,05,16,12,23.20
2009,06,05,16,13,23.20
2009,06,05,16,14,23.20
2009,06,05,16,15,23.30
2009,06,05,16,16,23.30
2009,06,05,16,17,23.40
2009,06,05,16,18,23.50
2009,06,05,16,19,23.60
2009,06,05,16,20,23.70
2009,06,05,16,21,23.70
2009,06,05,16,22,23.70
2009,06,05,16,23,23.80
2009,06,05,16,24,23.80
2009,06,05,16,25,23.80
2009,06,05,16,26,23.80
2009,06,05,16,27,23.80
2009,06,05,16,28,23.90
2009,06,05,16,29,24.00
2009,06,05,16,30,24.10
2009,06,05,16,31,24.10
2009,06,05,16,32,24.10
2009,06,05,16,33,24.10
2009,06,05,16,34,24.10
2009,06,05,16,35,24.10
2009,06,05,16,36,24.10
2009,06,05,16,37,24.10
2009,06,05,16,38,24.10
2009,06,05,16,39,24.10
2009,06,05,16,40,24.10
2009,06,05,16,41,24.10
2009,06,05,16,42,24.10
2009,06,05,16,43,24.10
2009,06,05,16,44,24.10
2009,06,05,16,45,24.10
2009,06,05,16,46,24.10
2009,06,05,16,47,24.10
2009,06,05,16,48,24.10
2009,06,05,16,49,24.10
2009,06,05,16,50,24.10
2009,06,05,16,51,24.10
2009,06,05,16,52,24.10
2009,06,05,16,53,24.10
2009,06,05,16,54,24.20
2009,06,05,16,55,24.30
2009,06,05,16,56,24.40
2009,06,05,16,57,24.40
2009,06,05,16,58,24.40
2009,06,05,16,59,24.50
2009,06,05,17,00,24.50
2009,06,05,17,01,24.50
2009,06,05,17,02,24.50
2009,06,05,17,03,24.50
2009,06,05,17,04,24.40
2009,06,05,17,05,24.30
2009,06,05,17,06,24.30
2009,06,05,17,07,24.30
2009,06,05,17,08,24.30
2009,06,05,17,09,24.40
2009,06,05,17,10,24.40
2009,06,05,17,11,24.50
2009,06,05,17,12,24.60
2009,06,05,17,13,24.60
2009,06,05,17,14,24.60
2009,06,05,17,15,24.60
2009,06,05,17,16,24.70
2009,06,05,17,17,24.70
2009,06,05,17,18,24.70
2009,06,05,17,19,24.70